[{"OBJECT_NAME":"SKYSAT-A","OBJECT_ID":"2013-066C","EPOCH":"2026-09-12T01:59:30.471648","MEAN_MOTION":15.133883,"ECCENTRICITY":0.0021599,"INCLINATION":97.3733,"RA_OF_ASC_NODE":301.6959,"ARG_OF_PERICENTER":18.072,"MEAN_ANOMALY":342.1274,"EPHEMERIS_TYPE":0,"CLASSIFICATION_TYPE":"U","NORAD_CAT_ID":39418,"ELEMENT_SET_NO":999,"REV_AT_EPOCH":70162,"BSTAR":0.00013455,"MEAN_MOTION_DOT":0.00002349,"MEAN_MOTION_DDOT":0},{"OBJECT_NAME":"SKYSAT-B","OBJECT_ID":"2014-037D","EPOCH":"2026-09-11T20:44:15.743040","MEAN_MOTION":14.88210501,"ECCENTRICITY":0.0005759,"INCLINATION":98.3937,"RA_OF_ASC_NODE":218.8236,"ARG_OF_PERICENTER":11.0569,"MEAN_ANOMALY":349.0772,"EPHEMERIS_TYPE":0,"CLASSIFICATION_TYPE":"U","NORAD_CAT_ID":40072,"ELEMENT_SET_NO":999,"REV_AT_EPOCH":65885,"BSTAR":0.00011086,"MEAN_MOTION_DOT":0.00000961,"MEAN_MOTION_DDOT":0},{"OBJECT_NAME":"SKYSAT-C1","OBJECT_ID":"2016-040C","EPOCH":"2026-09-12T00:04:04.611360","MEAN_MOTION":15.37570309,"ECCENTRICITY":0.0004249,"INCLINATION":96.9514,"RA_OF_ASC_NODE":282.0704,"ARG_OF_PERICENTER":80.3328,"MEAN_ANOMALY":279.8397,"EPHEMERIS_TYPE":0,"CLASSIFICATION_TYPE":"U","NORAD_CAT_ID":41601,"ELEMENT_SET_NO":999,"REV_AT_EPOCH":57120,"BSTAR":0.00018145,"MEAN_MOTION_DOT":0.00006615,"MEAN_MOTION_DDOT":0},{"OBJECT_NAME":"SKYSAT-C4","OBJECT_ID":"2016-058B","EPOCH":"2026-09-12T01:00:43.874208","MEAN_MOTION":15.5109427,"ECCENTRICITY":0.0000496,"INCLINATION":96.9155,"RA_OF_ASC_NODE":273.3185,"ARG_OF_PERICENTER":44.1443,"MEAN_ANOMALY":315.985,"EPHEMERIS_TYPE":0,"CLASSIFICATION_TYPE":"U","NORAD_CAT_ID":41771,"ELEMENT_SET_NO":999,"REV_AT_EPOCH":55892,"BSTAR":0.00022406,"MEAN_MOTION_DOT":0.00012967,"MEAN_MOTION_DDOT":0},{"OBJECT_NAME":"SKYSAT-C5","OBJECT_ID":"2016-058C","EPOCH":"2026-09-12T01:09:44.135136","MEAN_MOTION":15.34168806,"ECCENTRICITY":0.0001978,"INCLINATION":97.0397,"RA_OF_ASC_NODE":291.7347,"ARG_OF_PERICENTER":24.1135,"MEAN_ANOMALY":336.0201,"EPHEMERIS_TYPE":0,"CLASSIFICATION_TYPE":"U","NORAD_CAT_ID":41772,"ELEMENT_SET_NO":999,"REV_AT_EPOCH":55706,"BSTAR":0.00015421,"MEAN_MOTION_DOT":0.00005025,"MEAN_MOTION_DDOT":0},{"OBJECT_NAME":"SKYSAT-C2","OBJECT_ID":"2016-058D","EPOCH":"2026-09-12T00:46:09.062112","MEAN_MOTION":15.43818551,"ECCENTRICITY":0.0005067,"INCLINATION":97.0145,"RA_OF_ASC_NODE":273.9556,"ARG_OF_PERICENTER":93.4465,"MEAN_ANOMALY":266.7364,"EPHEMERIS_TYPE":0,"CLASSIFICATION_TYPE":"U","NORAD_CAT_ID":41773,"ELEMENT_SET_NO":999,"REV_AT_EPOCH":55844,"BSTAR":0.00019037,"MEAN_MOTION_DOT":0.00008544,"MEAN_MOTION_DDOT":0},{"OBJECT_NAME":"SKYSAT-C3","OBJECT_ID":"2016-058E","EPOCH":"2026-09-12T01:20:49.827264","MEAN_MOTION":15.56070915,"ECCENTRICITY":0.0002076,"INCLINATION":96.8952,"RA_OF_ASC_NODE":282.7486,"ARG_OF_PERICENTER":75.2432,"MEAN_ANOMALY":284.9054,"EPHEMERIS_TYPE":0,"CLASSIFICATION_TYPE":"U","NORAD_CAT_ID":41774,"ELEMENT_SET_NO":999,"REV_AT_EPOCH":55960,"BSTAR":0.00027757,"MEAN_MOTION_DOT":0.00019279,"MEAN_MOTION_DDOT":0},{"OBJECT_NAME":"SKYSAT-C11","OBJECT_ID":"2017-068A","EPOCH":"2026-09-12T03:48:56.965824","MEAN_MOTION":15.62501942,"ECCENTRICITY":0.0001054,"INCLINATION":97.4452,"RA_OF_ASC_NODE":48.133,"ARG_OF_PERICENTER":66.3428,"MEAN_ANOMALY":293.794,"EPHEMERIS_TYPE":0,"CLASSIFICATION_TYPE":"U","NORAD_CAT_ID":42987,"ELEMENT_SET_NO":999,"REV_AT_EPOCH":49680,"BSTAR":0.00034443,"MEAN_MOTION_DOT":0.00030571,"MEAN_MOTION_DDOT":0},{"OBJECT_NAME":"SKYSAT-C10","OBJECT_ID":"2017-068B","EPOCH":"2026-09-11T21:48:13.928256","MEAN_MOTION":15.36017756,"ECCENTRICITY":0.0001401,"INCLINATION":97.4623,"RA_OF_ASC_NODE":32.7512,"ARG_OF_PERICENTER":86.337,"MEAN_ANOMALY":273.8034,"EPHEMERIS_TYPE":0,"CLASSIFICATION_TYPE":"U","NORAD_CAT_ID":42988,"ELEMENT_SET_NO":999,"REV_AT_EPOCH":49566,"BSTAR":0.00021278,"MEAN_MOTION_DOT":0.0000738,"MEAN_MOTION_DDOT":0},{"OBJECT_NAME":"SKYSAT-C9","OBJECT_ID":"2017-068C","EPOCH":"2026-09-11T23:18:23.917824","MEAN_MOTION":15.43466935,"ECCENTRICITY":0.0008004,"INCLINATION":97.4544,"RA_OF_ASC_NODE":34.6132,"ARG_OF_PERICENTER":174.2238,"MEAN_ANOMALY":185.9104,"EPHEMERIS_TYPE":0,"CLASSIFICATION_TYPE":"U","NORAD_CAT_ID":42989,"ELEMENT_SET_NO":999,"REV_AT_EPOCH":49613,"BSTAR":0.00024895,"MEAN_MOTION_DOT":0.00011069,"MEAN_MOTION_DDOT":0},{"OBJECT_NAME":"SKYSAT-C8","OBJECT_ID":"2017-068D","EPOCH":"2026-09-11T22:33:18.768384","MEAN_MOTION":15.38491765,"ECCENTRICITY":0.0001593,"INCLINATION":97.4641,"RA_OF_ASC_NODE":32.9218,"ARG_OF_PERICENTER":90.6883,"MEAN_ANOMALY":269.4544,"EPHEMERIS_TYPE":0,"CLASSIFICATION_TYPE":"U","NORAD_CAT_ID":42990,"ELEMENT_SET_NO":999,"REV_AT_EPOCH":49564,"BSTAR":0.00022699,"MEAN_MOTION_DOT":0.00008537,"MEAN_MOTION_DDOT":0},{"OBJECT_NAME":"SKYSAT-C7","OBJECT_ID":"2017-068E","EPOCH":"2026-09-11T22:28:28.339104","MEAN_MOTION":15.38438048,"ECCENTRICITY":0.0006418,"INCLINATION":97.4655,"RA_OF_ASC_NODE":33.9143,"ARG_OF_PERICENTER":145.4966,"MEAN_ANOMALY":214.6696,"EPHEMERIS_TYPE":0,"CLASSIFICATION_TYPE":"U","NORAD_CAT_ID":42991,"ELEMENT_SET_NO":999,"REV_AT_EPOCH":49570,"BSTAR":0.00023095,"MEAN_MOTION_DOT":0.00008678,"MEAN_MOTION_DDOT":0},{"OBJECT_NAME":"SKYSAT-C6","OBJECT_ID":"2017-068F","EPOCH":"2026-09-12T03:45:55.443744","MEAN_MOTION":15.3404538,"ECCENTRICITY":0.0001511,"INCLINATION":97.4704,"RA_OF_ASC_NODE":33.6785,"ARG_OF_PERICENTER":138.2606,"MEAN_ANOMALY":221.8752,"EPHEMERIS_TYPE":0,"CLASSIFICATION_TYPE":"U","NORAD_CAT_ID":42992,"ELEMENT_SET_NO":999,"REV_AT_EPOCH":49565,"BSTAR":0.0002052,"MEAN_MOTION_DOT":0.00006678,"MEAN_MOTION_DDOT":0},{"OBJECT_NAME":"SKYSAT-C12","OBJECT_ID":"2018-099AR","EPOCH":"2026-09-12T01:01:42.858624","MEAN_MOTION":15.51489585,"ECCENTRICITY":0.0003973,"INCLINATION":96.9236,"RA_OF_ASC_NODE":274.9298,"ARG_OF_PERICENTER":171.9311,"MEAN_ANOMALY":188.2007,"EPHEMERIS_TYPE":0,"CLASSIFICATION_TYPE":"U","NORAD_CAT_ID":43797,"ELEMENT_SET_NO":999,"REV_AT_EPOCH":43531,"BSTAR":0.0002309,"MEAN_MOTION_DOT":0.00013559,"MEAN_MOTION_DDOT":0},{"OBJECT_NAME":"FLOCK 4Q-16","OBJECT_ID":"2023-174R","EPOCH":"2026-09-11T19:32:10.291200","MEAN_MOTION":15.52829603,"ECCENTRICITY":0.0005835,"INCLINATION":97.378,"RA_OF_ASC_NODE":345.1185,"ARG_OF_PERICENTER":205.3545,"MEAN_ANOMALY":154.7422,"EPHEMERIS_TYPE":0,"CLASSIFICATION_TYPE":"U","NORAD_CAT_ID":58271,"ELEMENT_SET_NO":999,"REV_AT_EPOCH":15900,"BSTAR":0.00035561,"MEAN_MOTION_DOT":0.00021982,"MEAN_MOTION_DDOT":0},{"OBJECT_NAME":"FLOCK 4Q-11","OBJECT_ID":"2023-174T","EPOCH":"2026-09-12T01:21:51.869376","MEAN_MOTION":15.55997109,"ECCENTRICITY":0.0006532,"INCLINATION":97.3813,"RA_OF_ASC_NODE":346.1597,"ARG_OF_PERICENTER":205.3563,"MEAN_ANOMALY":154.7372,"EPHEMERIS_TYPE":0,"CLASSIFICATION_TYPE":"U","NORAD_CAT_ID":58273,"ELEMENT_SET_NO":999,"REV_AT_EPOCH":15906,"BSTAR":0.00093794,"MEAN_MOTION_DOT":0.00065607,"MEAN_MOTION_DDOT":0},{"OBJECT_NAME":"PELICAN-1","OBJECT_ID":"2023-174AS","EPOCH":"2026-09-12T02:19:45.221088","MEAN_MOTION":15.68531144,"ECCENTRICITY":0.0001737,"INCLINATION":97.4022,"RA_OF_ASC_NODE":0.6573,"ARG_OF_PERICENTER":29.9403,"MEAN_ANOMALY":330.1957,"EPHEMERIS_TYPE":0,"CLASSIFICATION_TYPE":"U","NORAD_CAT_ID":58296,"ELEMENT_SET_NO":999,"REV_AT_EPOCH":15981,"BSTAR":0.000043177,"MEAN_MOTION_DOT":0.00004751,"MEAN_MOTION_DDOT":0},{"OBJECT_NAME":"FLOCK 4Q-2","OBJECT_ID":"2023-174BS","EPOCH":"2026-09-12T04:53:23.074656","MEAN_MOTION":15.53400613,"ECCENTRICITY":0.0005748,"INCLINATION":97.3828,"RA_OF_ASC_NODE":345.9468,"ARG_OF_PERICENTER":167.5448,"MEAN_ANOMALY":192.5949,"EPHEMERIS_TYPE":0,"CLASSIFICATION_TYPE":"U","NORAD_CAT_ID":58320,"ELEMENT_SET_NO":999,"REV_AT_EPOCH":15909,"BSTAR":0.00037056,"MEAN_MOTION_DOT":0.00023391,"MEAN_MOTION_DDOT":0},{"OBJECT_NAME":"FLOCK 4Q-9","OBJECT_ID":"2023-174BU","EPOCH":"2026-09-12T01:34:09.217344","MEAN_MOTION":15.54251308,"ECCENTRICITY":0.0006435,"INCLINATION":97.382,"RA_OF_ASC_NODE":345.9784,"ARG_OF_PERICENTER":170.9817,"MEAN_ANOMALY":189.1553,"EPHEMERIS_TYPE":0,"CLASSIFICATION_TYPE":"U","NORAD_CAT_ID":58322,"ELEMENT_SET_NO":999,"REV_AT_EPOCH":15906,"BSTAR":0.00042135,"MEAN_MOTION_DOT":0.00027463,"MEAN_MOTION_DDOT":0},{"OBJECT_NAME":"FLOCK 4Q-4","OBJECT_ID":"2023-174BZ","EPOCH":"2026-09-12T05:01:05.807136","MEAN_MOTION":15.52309334,"ECCENTRICITY":0.0004724,"INCLINATION":97.3787,"RA_OF_ASC_NODE":345.0603,"ARG_OF_PERICENTER":192.7268,"MEAN_ANOMALY":167.3866,"EPHEMERIS_TYPE":0,"CLASSIFICATION_TYPE":"U","NORAD_CAT_ID":58327,"ELEMENT_SET_NO":999,"REV_AT_EPOCH":15904,"BSTAR":0.00034274,"MEAN_MOTION_DOT":0.00020782,"MEAN_MOTION_DDOT":0},{"OBJECT_NAME":"FLOCK 4Q-13","OBJECT_ID":"2023-174CA","EPOCH":"2026-09-12T04:58:15.160224","MEAN_MOTION":15.55482183,"ECCENTRICITY":0.0005879,"INCLINATION":97.399,"RA_OF_ASC_NODE":348.7975,"ARG_OF_PERICENTER":176.3875,"MEAN_ANOMALY":183.7423,"EPHEMERIS_TYPE":0,"CLASSIFICATION_TYPE":"U","NORAD_CAT_ID":58328,"ELEMENT_SET_NO":999,"REV_AT_EPOCH":15918,"BSTAR":0.00032552,"MEAN_MOTION_DOT":0.00022153,"MEAN_MOTION_DDOT":0},{"OBJECT_NAME":"FLOCK 4BE-18","OBJECT_ID":"2024-149N","EPOCH":"2026-09-12T00:50:23.493696","MEAN_MOTION":15.44761924,"ECCENTRICITY":0.0002368,"INCLINATION":97.3687,"RA_OF_ASC_NODE":339.8173,"ARG_OF_PERICENTER":303.6542,"MEAN_ANOMALY":56.448,"EPHEMERIS_TYPE":0,"CLASSIFICATION_TYPE":"U","NORAD_CAT_ID":60480,"ELEMENT_SET_NO":999,"REV_AT_EPOCH":11570,"BSTAR":0.00069518,"MEAN_MOTION_DOT":0.00032516,"MEAN_MOTION_DDOT":0},{"OBJECT_NAME":"FLOCK 4BE-7","OBJECT_ID":"2024-149P","EPOCH":"2026-09-12T04:08:03.339168","MEAN_MOTION":15.43867507,"ECCENTRICITY":0.000144,"INCLINATION":97.3719,"RA_OF_ASC_NODE":339.1774,"ARG_OF_PERICENTER":319.3195,"MEAN_ANOMALY":40.7946,"EPHEMERIS_TYPE":0,"CLASSIFICATION_TYPE":"U","NORAD_CAT_ID":60481,"ELEMENT_SET_NO":999,"REV_AT_EPOCH":11565,"BSTAR":0.00062438,"MEAN_MOTION_DOT":0.00028308,"MEAN_MOTION_DDOT":0}]